Tracking 22458 objects as of 3-Mar-2021
HD Live streaming from Space Station
objects crossing your sky now

ALOS DEB

Track ALOS DEB now!
10-day predictions


NORAD ID: 35418
Int'l Code: 2006-002Z
Perigee: 676.5 km
Apogee: 678.7 km
Inclination: 98.0 °
Period: 98.2 minutes
Semi major axis: 7048 km
RCS: 0.0242 m2 (small)
Launch date: January 24, 2006
Source: Japan (JPN)
Launch site: TANEGASHIMA SPACE CENTER (TNSTA)

Note: This is SATELLITE DEBRIS
aabbcc
Your satellite tracking list
Your tracking list is empty




NASA's NSSDC Master Catalog

Two Line Element Set (TLE):
1 35418U 06002Z   21060.89905167  .00000349  00000-0  70496-4 0  9999
2 35418  97.9623  28.6786 0001509  82.0413 335.8756 14.67066452749333
Source of the keplerian elements: AFSPC